World > North America > United States > New York

Hancock, New York Regional Weather

Lat: 41.95N, Lon: 75.28W
Wx Zone: NYZ057Web Search

Our weather pages are very print friendly and they make great conversation starters.

Feedback


°F Click to change Hancock hourly weather to Imperial units.Click to change Hancock hourly weather to Metric units. °C
Hancock Weather Map
UTC Time: 6/24/2021, 15:07
Your Time:

Hancock, NY Regional Weather

Expires:202106241500;;778107
ASUS41 KALY 241410
RWRALY

NEW YORK STATE HOURLY WEATHER ROUNDUP
NATIONAL WEATHER SERVICE ALBANY NY
1000 AM EDT THU JUN 24 2021

NOTE: "FAIR" INDICATES FEW OR NO CLOUDS BELOW 12,000 FEET WITH NO
SIGNIFICANT WEATHER AND/OR NO OBSTRUCTIONS TO VISIBILITY.


NYZ032-033-038>043-046>054-057>066-NYZ062>081-082-084-241500-
EAST

  
CITY           SKY/WX    TMP DP  RH WIND       PRES   REMARKS
ALBANY         MOSUNNY   65  49  56 S10       30.38F                  
GLENS FALLS    SUNNY     65  49  56 S7        30.37F                  
POUGHKEEPSIE   SUNNY     69  54  58 CALM      30.38F                  
NEWBURGH       SUNNY     68  54  60 CALM      30.40S                  
MONTGOMERY     SUNNY     66  54  65 CALM      30.39S                  
WHITE PLAINS   SUNNY     69  56  62 SE7       30.39S                  
ISLIP          MOSUNNY   71  54  54 SE6       30.40S                  
NEW YORK CITY  MOSUNNY   70  55  59 NE8       30.38F                  
CENTRAL PARK   SUNNY     71  52  50 NE7       30.41F                  
$$


SKY/WX - Weather  TMP - Temperature  DP - Dew Point  RH - Relative Humidity
WIND - Wind Direction/Speed PRES - Barometric Pressure VSB - Visibility
WCI - Wind Chill Index E13G22 Wind - East Wind 13 mph/Gusts of 22 mph